| time (UTC) | temp C | wind direction | speed KPH | gust KPH | rain 1hr cm | rain 24hr cm | rain mn cm | humidity % | barometer mb |
| 20260505200016 | 27 | 203 | 16.1 | 40.2 | 0.00 | 0.00 | 0.00 | 44 | 1005.8 |
| 20260505194522 | 27 | 196 | 19.3 | 35.4 | 0.00 | 0.00 | 0.00 | 44 | 1006.0 |
| 20260505191513 | 27 | 182 | 14.5 | 29.0 | 0.00 | 0.00 | 0.00 | 43 | 1006.2 |
| 20260505184520 | 27 | 205 | 14.5 | 30.6 | 0.00 | 0.00 | 0.00 | 44 | 1006.9 |
| 20260505183025 | 26 | 194 | 17.7 | 32.2 | 0.00 | 0.00 | 0.00 | 45 | 1007.0 |
| 20260505181525 | 26 | 186 | 14.5 | 33.8 | 0.00 | 0.00 | 0.00 | 45 | 1007.1 |
| 20260505180017 | 26 | 126 | 17.7 | 35.4 | 0.00 | 0.00 | 0.00 | 45 | 1007.3 |
| 20260505174519 | 26 | 227 | 16.1 | 35.4 | 0.00 | 0.00 | 0.00 | 45 | 1007.4 |
| 20260505173018 | 26 | 179 | 9.7 | 30.6 | 0.00 | 0.00 | 0.00 | 50 | 1007.4 |
| 20260505171524 | 26 | 215 | 12.9 | 29.0 | 0.00 | 0.00 | 0.00 | 47 | 1007.7 |
| 20260505170024 | 26 | 165 | 14.5 | 33.8 | 0.00 | 0.00 | 0.00 | 49 | 1007.9 |
| 20260505164510 | 26 | 228 | 12.9 | 37.0 | 0.00 | 0.00 | 0.00 | 49 | 1008.1 |
| 20260505163049 | 26 | 259 | 12.9 | 37.0 | 0.00 | 0.00 | 0.00 | 50 | 1008.4 |
| 20260505161520 | 25 | 240 | 16.1 | 40.2 | 0.00 | 0.00 | 0.00 | 48 | 1008.6 |
| 20260505151520 | 24 | 229 | 12.9 | 27.4 | 0.00 | 0.00 | 0.00 | 56 | 1008.8 |
| 20260505124522 | 17 | 146 | 8.0 | 16.1 | 0.00 | 0.00 | 0.00 | 75 | 1009.8 |
| 20260505123049 | 16 | 210 | 6.4 | 16.1 | 0.00 | 0.00 | 0.00 | 77 | 1009.9 |
| 20260505121526 | 16 | 186 | 8.0 | 22.5 | 0.00 | 0.00 | 0.00 | 77 | 1009.9 |
| 20260505120014 | 15 | 159 | 6.4 | 17.7 | 0.00 | 0.00 | 0.00 | 80 | 1009.9 |
| 20260505114523 | 15 | 182 | 4.8 | 16.1 | 0.00 | 0.00 | 0.00 | 82 | 1009.6 |
| 20260505113015 | 14 | 152 | 8.0 | 16.1 | 0.00 | 0.00 | 0.00 | 83 | 1009.4 |
| 20260505111506 | 13 | 140 | 4.8 | 14.5 | 0.00 | 0.00 | 0.00 | 84 | 1009.1 |
| 20260505101523 | 13 | 162 | 4.8 | 12.9 | 0.00 | 0.00 | 0.00 | 85 | 1008.5 |
| 20260505100004 | 13 | 183 | 6.4 | 14.5 | 0.00 | 0.00 | 0.00 | 84 | 1008.5 |
| 20260505094506 | 13 | 173 | 3.2 | 11.3 | 0.00 | 0.00 | 0.00 | 83 | 1008.6 |
| 20260505093011 | 13 | 182 | 6.4 | 14.5 | 0.00 | 0.00 | 0.00 | 83 | 1008.5 |
| 20260505091505 | 13 | 210 | 3.2 | 16.1 | 0.00 | 0.00 | 0.00 | 82 | 1008.4 |
| 20260505084508 | 13 | 208 | 8.0 | 19.3 | 0.00 | 0.00 | 0.00 | 82 | 1008.1 |
| 20260505083007 | 14 | 149 | 8.0 | 17.7 | 0.00 | 0.00 | 0.00 | 80 | 1008.1 |
| 20260505081507 | 15 | 199 | 4.8 | 12.9 | 0.00 | 0.00 | 0.00 | 79 | 1008.1 |
| 20260505073008 | 15 | 212 | 1.6 | 11.3 | 0.00 | 0.00 | 0.00 | 78 | 1008.0 |
| 20260505071507 | 15 | 169 | 4.8 | 12.9 | 0.00 | 0.00 | 0.00 | 77 | 1007.7 |
| 20260505070007 | 15 | 169 | 6.4 | 11.3 | 0.00 | 0.00 | 0.00 | 76 | 1007.8 |
| 20260505063009 | 16 | 140 | 3.2 | 12.9 | 0.00 | 0.00 | 0.00 | 74 | 1007.9 |
| 20260505061512 | 16 | 191 | 4.8 | 12.9 | 0.00 | 0.00 | 0.00 | 74 | 1008.0 |
| 20260505060022 | 16 | 188 | 4.8 | 11.3 | 0.00 | 0.00 | 0.00 | 72 | 1008.0 |
| 20260505054516 | 17 | 155 | 6.4 | 14.5 | 0.00 | 0.00 | 0.00 | 71 | 1008.0 |
| 20260505051510 | 17 | 194 | 8.0 | 20.9 | 0.00 | 0.00 | 0.00 | 68 | 1008.1 |
| 20260505040017 | 18 | 200 | 11.3 | 17.7 | 0.00 | 0.00 | 0.00 | 64 | 1007.7 |
| 20260505034513 | 18 | 200 | 8.0 | 17.7 | 0.00 | 0.00 | 0.00 | 64 | 1007.6 |
| 20260505033017 | 19 | 196 | 9.7 | 19.3 | 0.00 | 0.00 | 0.00 | 62 | 1007.6 |
| 20260505024513 | 19 | 173 | 6.4 | 17.7 | 0.00 | 0.00 | 0.00 | 60 | 1007.6 |
| 20260505023017 | 20 | 198 | 8.0 | 20.9 | 0.00 | 0.00 | 0.00 | 59 | 1007.7 |
| 20260505021515 | 20 | 190 | 8.0 | 17.7 | 0.00 | 0.00 | 0.00 | 58 | 1007.7 |
| 20260505014516 | 21 | 210 | 6.4 | 17.7 | 0.00 | 0.00 | 0.00 | 55 | 1007.4 |
| 20260505013016 | 21 | 196 | 9.7 | 17.7 | 0.00 | 0.00 | 0.00 | 55 | 1007.4 |
| 20260505011520 | 21 | 202 | 8.0 | 22.5 | 0.00 | 0.00 | 0.00 | 53 | 1007.4 |
| 20260505010014 | 21 | 204 | 11.3 | 27.4 | 0.00 | 0.00 | 0.00 | 53 | 1006.9 |
| 20260505004534 | 21 | 207 | 9.7 | 17.7 | 0.00 | 0.00 | 0.00 | 53 | 1006.7 |
| 20260505003016 | 21 | 180 | 8.0 | 16.1 | 0.00 | 0.00 | 0.00 | 52 | 1006.6 |
| 20260505001521 | 21 | 198 | 4.8 | 14.5 | 0.00 | 0.00 | 0.00 | 52 | 1006.6 |
| 20260505000022 | 21 | 200 | 8.0 | 16.1 | 0.00 | 0.00 | 0.00 | 50 | 1006.6 |
| 20260504234526 | 22 | 228 | 3.2 | 16.1 | 0.00 | 0.00 | 0.00 | 50 | 1006.5 |
| 20260504233016 | 22 | 183 | 6.4 | 22.5 | 0.00 | 0.00 | 0.00 | 48 | 1006.5 |
| 20260504231535 | 23 | 179 | 8.0 | 22.5 | 0.00 | 0.00 | 0.00 | 47 | 1006.4 |
| 20260504230006 | 23 | 171 | 9.7 | 19.3 | 0.00 | 0.00 | 0.00 | 47 | 1006.4 |
| 20260504224509 | 23 | 174 | 8.0 | 19.3 | 0.00 | 0.00 | 0.00 | 46 | 1006.4 |
| 20260504223010 | 23 | 232 | 8.0 | 17.7 | 0.00 | 0.00 | 0.00 | 46 | 1006.5 |
| 20260504221518 | 23 | 241 | 8.0 | 19.3 | 0.00 | 0.00 | 0.00 | 46 | 1006.5 |
| 20260504220020 | 23 | 145 | 9.7 | 22.5 | 0.00 | 0.00 | 0.00 | 46 | 1006.5 |
| 20260504214509 | 23 | 238 | 6.4 | 20.9 | 0.00 | 0.00 | 0.00 | 47 | 1006.6 |
| 20260504213009 | 23 | 202 | 9.7 | 27.4 | 0.00 | 0.00 | 0.00 | 46 | 1006.5 |
| 20260504211514 | 23 | 223 | 12.9 | 22.5 | 0.00 | 0.00 | 0.00 | 45 | 1006.5 |
| 20260504210020 | 23 | 215 | 6.4 | 20.9 | 0.00 | 0.00 | 0.00 | 49 | 1006.6 |
| 20260504204549 | 23 | 142 | 12.9 | 24.1 | 0.00 | 0.00 | 0.00 | 46 | 1006.6 |
| 20260504203009 | 23 | 198 | 8.0 | 33.8 | 0.00 | 0.00 | 0.00 | 48 | 1006.7 |
| 20260504201511 | 23 | 188 | 8.0 | 20.9 | 0.00 | 0.00 | 0.00 | 47 | 1006.9 |